{"data":{"norad_id":55593,"epoch":"2026-09-20T21:52:55.687296Z","epoch_age_seconds":64779,"freshness":"FRESH","line1":"1 55593U 23020AA  26263.91175564 -.00000407  00000+0 -52533-5 0  9996","line2":"2 55593  43.0028 342.3333 0001063 268.6274  91.4456 15.27574363198776","mean_motion":15.27574363,"eccentricity":0.0001063,"inclination_deg":43.0028,"raan_deg":342.3333,"arg_perigee_deg":268.6274,"mean_anomaly_deg":91.4456,"bstar":-5.2533e-6,"rev_number":19877,"period_min":94.267096573419,"perigee_km":482.33662942118,"apogee_km":483.79532117373,"semimajor_km":6861.2029752975,"source":"CELESTRAK","updated_at":"2026-09-21T09:00:33.269212Z"}}